Overview Statistics Trail Chart Weather Telemetry Raw packets
 

This is the latest recevied weather packets stored in our database for station/object KO4ZGL-13. If no packets are shown the sender has not sent any weather packets the latest 10 day(s).

<< 82 83 84 85 86 87 88 >>
Time Temp. Humidity Pressure Rain* Wind** Luminosity Snow
1788043019 25.56° C 99% 1020.4 hPa 0 mm - 42 W/m² -
1788042715 25.56° C 99% 1020.3 hPa 0 mm - 55 W/m² -
1788042414 25.56° C 99% 1020.1 hPa 0 mm - 61 W/m² -
1788042108 26.11° C 99% 1020 hPa 0 mm - 61 W/m² -
1788041803 26.11° C 99% 1019.8 hPa 0 mm - 68 W/m² -
1788041499 25.56° C 99% 1019.9 hPa 0 mm - 79 W/m² -
1788041194 26.11° C 99% 1019.9 hPa 0 mm - 82 W/m² -
1788040893 26.11° C 98% 1020.2 hPa 0 mm - 80 W/m² -
1788040605 26.67° C 99% 1020.4 hPa 0 mm - 69 W/m² -
1788040287 26.67° C 99% 1020.2 hPa 0 mm - 67 W/m² -
1788039987 26.67° C 99% 1020.4 hPa 0 mm - 72 W/m² -
1788039682 26.67° C 99% 1020.5 hPa 1.78 mm - 68 W/m² -
1788039377 26.67° C 99% 1020.2 hPa 1.78 mm - 63 W/m² -
1788039073 26.67° C 99% 1020.7 hPa 0 mm - 57 W/m² -
1788038768 26.67° C 98% 1020.3 hPa 3.05 mm - 54 W/m² -
1788038462 26.67° C 98% 1020.7 hPa 4.32 mm - 48 W/m² -
1788038162 27.22° C 98% 1020.6 hPa 3.05 mm - 43 W/m² -
1788037867 27.22° C 98% 1020.5 hPa 3.05 mm - 49 W/m² -
1788037551 26.67° C 98% 1020.3 hPa 0 mm - 58 W/m² -
1788037246 26.67° C 98% 1020.4 hPa 0 mm - 67 W/m² -
1788036945 27.22° C 97% 1020.3 hPa 0 mm - 46 W/m² -
1788036643 27.22° C 97% 1020.3 hPa 0 mm - 64 W/m² -
1788036337 27.22° C 97% 1020.2 hPa 0 mm - 80 W/m² -
1788036032 27.22° C 97% 1020.3 hPa 0 mm - 79 W/m² -
1788035732 27.22° C 97% 1020.2 hPa 0 mm - 101 W/m² -

* Rain latest hour (hover to see other rain measurements)
** Current wind speed in m/s (hover to see current wind gust speed)